Wind_Speed
5 6 6 5 6 6 6 5 5 4 5 5 5 7 8 6 4 6 8 8 8 9 9 9 8 6 5 4 9 11 12 13 8 10 13 16 14 11 11 10 7 6 5 4 4 7 8 4 3 4 5 6 3 0 1 1 3 3 3 3 2 2 4 4 4 5 4 4 7 9 10 6 6 9 7 5 14 21 21 21 19 19 21 19 17 18 20 22
6 6 5 5 6 6 6 5 4 4 4 4 5 7 7 5 3 5 8 8 8 9 9 9 7 5 4 2 6 9 10 10 8 13 17 17 13 11 10 9 8 6 6 4 3 5 7 5 1 3 6 5 3 0 0 0 3 3 3 2 2 3 3 5 5 5 5 5 7 8 8 8 7 8 7 6 13 18 17 15 16 18 19 18 18 19 21 24
7 6 5 5 5 5 5 4 4 4 4 5 6 7 6 4 4 5 7 8 7 9 9 8 6 7 5 1 5 8 8 6 10 15 17 15 11 10 10 9 9 8 7 5 3 3 5 5 3 4 6 3 3 0 1 1 2 2 3 2 3 2 4 7 7 6 7 6 8 8 5 8 10 10 6 9 15 16 12 10 12 15 16 16 18 19 21 25
7 6 5 5 5 5 4 4 5 5 5 6 7 6 5 4 5 5 6 7 8 10 10 7 8 9 8 2 7 7 4 4 11 16 15 12 10 10 11 10 10 9 8 5 4 5 5 5 4 4 4 1 4 0 2 2 2 3 4 2 3 4 3 7 8 7 8 7 7 7 2 7 14 15 11 11 12 10 9 11 12 13 14 14 16 18 20 23
7 6 5 5 4 4 4 5 5 5 6 7 6 5 5 5 5 5 6 7 9 11 9 6 10 13 12 9 7 4 3 1 10 17 12 10 10 12 12 12 12 12 11 7 7 6 5 4 3 3 3 2 3 0 3 4 2 3 4 5 6 6 4 7 8 7 9 8 5 5 5 8 14 16 17 15 10 6 9 12 13 14 14 14 15 17 20 22
6 6 4 4 4 4 5 5 6 6 6 6 6 6 6 6 5 5 6 7 10 13 11 5 7 13 15 15 12 10 6 2 11 15 10 10 11 13 13 13 13 14 15 11 9 7 5 4 4 2 0 3 3 2 4 3 1 1 4 6 8 8 6 7 7 6 8 8 6 6 5 12 15 13 18 19 14 12 12 13 14 14 14 14 16 18 20 22
6 5 5 5 4 4 5 6 6 6 6 6 6 6 6 5 5 5 6 6 9 14 15 7 4 5 9 12 13 13 12 7 13 13 9 10 11 13 13 13 14 16 15 11 10 6 4 4 1 2 3 4 4 4 2 2 3 2 3 5 6 8 7 6 6 5 5 5 5 2 3 11 15 10 15 18 15 15 13 13 14 14 14 15 17 18 20 20
5 5 5 6 5 5 6 6 6 7 7 6 6 6 5 5 4 5 5 5 7 11 15 12 6 3 4 4 4 9 15 13 14 12 9 10 11 13 14 14 15 14 12 10 9 6 4 6 5 5 3 3 3 4 2 4 5 5 4 4 4 5 5 2 1 2 3 2 1 3 7 12 16 14 14 16 15 14 12 12 13 13 14 15 17 17 18 19
6 6 6 6 5 5 6 6 7 7 6 6 5 4 4 4 4 4 5 4 7 9 11 13 12 8 6 5 3 4 12 14 13 12 10 9 10 13 14 13 16 13 11 10 7 4 5 7 8 7 5 5 5 3 4 4 3 5 3 3 3 3 3 1 2 3 2 4 3 5 11 13 18 15 11 13 14 13 12 12 12 12 13 14 15 16 16 17
7 7 7 6 6 6 7 7 7 6 5 4 3 3 4 4 3 4 5 5 8 11 11 12 14 14 10 6 4 3 10 12 12 11 10 10 10 12 12 11 14 13 12 11 5 6 8 5 6 6 6 7 7 5 6 3 1 3 3 1 2 3 1 1 5 4 1 5 7 3 9 9 12 7 5 11 12 11 11 10 10 11 12 12 13 14 15 15
8 8 7 7 7 8 7 6 6 4 3 2 2 3 3 3 4 4 4 4 7 10 13 11 14 16 14 16 14 7 11 12 11 12 10 10 11 12 13 12 13 13 14 13 8 6 6 6 5 4 4 3 5 6 6 5 2 2 3 1 1 2 1 1 5 4 3 3 6 1 7 7 7 5 6 11 11 10 10 9 9 10 11 11 12 12 13 14
8 7 7 7 8 7 6 5 5 4 3 2 1 2 3 3 4 4 4 4 4 7 10 12 14 12 12 22 22 12 12 13 12 13 10 9 12 14 14 12 11 14 17 17 13 8 7 7 6 5 4 2 1 3 4 5 3 3 4 2 3 4 1 1 5 4 4 2 4 1 4 4 5 5 9 11 10 9 8 9 8 8 9 9 10 11 11 12
8 8 8 8 7 6 5 4 4 4 3 2 2 3 4 5 5 5 5 5 6 6 5 7 14 15 13 17 18 16 15 15 14 12 9 9 11 14 14 11 9 12 16 18 17 13 11 10 8 8 7 5 2 3 1 3 3 2 4 3 2 2 2 2 6 5 6 3 2 3 1 2 4 5 8 9 10 9 7 7 7 7 7 7 8 9 10 11
8 8 8 7 6 5 5 5 4 4 3 2 2 4 5 7 7 6 7 7 8 9 8 6 8 12 14 11 13 19 17 15 15 11 9 10 9 9 12 12 9 9 12 16 17 16 15 13 10 9 8 6 3 3 1 3 3 2 2 2 2 1 0 3 5 6 4 1 2 5 2 2 5 5 6 7 8 8 7 6 6 6 6 6 6 7 8 9
9 8 7 6 5 5 5 5 5 5 4 3 4 6 7 8 8 8 10 11 11 9 9 9 7 7 10 9 11 18 15 14 16 14 10 9 7 5 9 11 10 10 10 11 12 14 16 14 11 9 7 4 2 3 1 2 1 4 3 1 4 3 2 1 4 6 4 2 3 3 2 2 5 5 6 6 6 7 6 6 6 5 5 5 5 6 7 8
8 7 6 5 5 5 6 7 9 11 11 8 6 6 7 7 9 10 9 11 13 11 8 9 9 9 8 7 9 14 17 16 15 13 11 9 7 5 6 8 8 7 9 10 11 11 10 10 10 12 12 5 2 2 1 3 3 5 4 2 5 5 5 3 2 4 5 4 4 3 3 1 4 7 7 6 7 7 6 6 5 5 4 4 5 5 6 7
8 6 5 5 6 8 10 12 15 19 21 18 12 8 6 5 3 4 4 5 8 11 12 10 8 10 11 10 10 15 18 16 12 10 10 10 8 5 5 6 4 4 5 8 11 9 7 6 5 8 12 8 5 3 4 5 4 4 5 3 4 4 5 5 2 3 7 4 2 5 5 2 4 8 7 6 7 7 7 6 5 4 4 4 4 5 6 7
7 5 5 6 10 13 14 14 15 18 23 24 22 19 17 15 9 4 4 4 6 9 11 11 7 6 8 13 12 11 16 16 13 11 9 8 9 8 7 7 7 7 5 2 8 9 6 6 4 3 7 8 7 7 4 3 4 4 5 3 4 5 5 7 5 4 7 4 4 6 5 4 5 7 8 7 7 7 7 6 5 4 4 3 4 5 6 8
6 5 6 10 13 11 9 9 9 11 15 17 16 15 17 21 23 21 21 19 16 11 6 10 11 4 1 12 11 6 12 18 15 11 7 5 7 8 8 6 7 9 3 1 8 11 6 5 5 4 5 7 6 6 4 2 4 5 5 4 4 6 5 7 8 3 4 5 6 7 4 5 7 7 8 9 8 7 6 5 5 3 3 3 4 6 7 9
5 6 9 11 9 6 5 6 6 5 6 6 5 6 5 9 14 19 29 31 25 16 10 11 12 7 4 11 12 6 9 15 14 12 6 4 6 6 8 5 3 8 6 0 4 9 8 7 5 5 4 6 5 5 4 4 4 5 5 5 5 5 5 9 10 2 3 3 5 7 6 4 7 6 8 10 9 7 7 6 4 2 2 3 4 6 7 9
6 8 10 9 5 5 5 6 6 3 2 1 3 5 4 5 5 8 18 23 21 19 17 15 11 8 8 12 15 11 8 9 13 16 9 5 6 5 9 8 2 3 4 2 2 8 10 7 5 5 4 5 4 3 3 3 4 5 5 4 5 5 6 12 10 2 3 2 5 8 8 6 7 6 8 10 8 7 7 6 4 3 3 3 5 6 7 9
7 9 8 6 5 6 6 6 8 8 5 5 9 13 14 14 13 13 12 12 14 15 14 15 15 12 10 10 12 13 11 8 12 19 14 9 10 7 9 10 4 4 5 2 2 5 8 5 5 6 5 5 4 4 4 4 5 5 5 3 4 5 7 10 5 2 2 1 5 9 7 6 4 6 7 8 7 5 5 4 4 3 3 4 5 7 8 11
8 7 6 5 7 8 9 8 8 8 8 8 10 12 13 12 13 13 9 6 9 12 11 14 17 18 14 9 9 12 14 11 11 19 20 14 12 10 9 7 4 5 7 6 5 4 4 3 5 5 4 4 4 2 5 5 4 3 2 3 4 6 6 6 5 7 7 6 9 9 6 6 1 4 5 7 8 7 6 4 4 2 1 2 5 7 8 12
6 5 5 6 7 9 9 10 9 6 5 5 4 4 5 6 8 8 4 3 5 7 10 11 13 18 18 13 13 10 10 13 12 16 21 18 11 7 6 5 4 4 5 5 7 7 3 1 5 6 4 4 4 3 7 6 4 1 3 4 5 9 8 8 9 10 10 9 7 4 5 4 4 6 5 6 7 7 7 6 6 4 1 1 5 7 8 11
5 4 4 5 7 8 8 9 11 8 6 6 2 1 3 4 4 3 2 2 3 5 8 8 9 15 17 16 17 8 2 10 14 15 18 18 13 5 3 4 3 3 4 4 5 6 3 0 3 5 4 4 4 3 5 4 5 2 1 5 9 12 12 12 11 8 6 5 1 2 3 3 4 6 6 6 5 6 7 8 7 4 0 3 6 9 10 12
4 3 4 4 5 6 6 8 11 8 7 7 3 1 4 4 5 3 2 2 1 4 6 7 7 11 15 16 18 8 2 6 10 13 15 15 14 7 2 4 3 3 2 3 3 2 1 0 3 5 5 4 3 3 3 3 4 4 3 8 12 13 13 13 10 5 3 5 3 3 2 4 2 3 4 8 5 6 7 6 5 3 2 6 9 10 13 17
3 3 3 3 3 5 5 5 10 8 7 6 4 1 2 2 4 4 2 1 2 4 6 7 6 9 12 15 18 6 2 6 6 11 17 14 13 8 3 4 2 2 1 1 1 1 2 3 4 6 4 4 5 3 2 3 1 4 5 10 13 14 14 13 9 4 4 7 5 2 1 4 4 3 5 8 6 6 6 5 4 2 5 9 10 12 16 20
3 3 4 2 1 3 4 6 9 9 8 6 3 2 0 0 3 2 0 1 2 4 4 6 5 9 9 10 17 10 2 8 5 9 18 15 13 8 3 4 2 1 0 2 0 1 1 3 4 6 4 3 3 3 3 2 2 5 6 9 12 14 15 13 7 5 4 5 4 1 3 4 5 3 5 6 4 5 4 3 3 4 8 10 12 14 19 23
3 4 4 3 3 3 5 7 8 8 9 6 3 2 3 2 3 1 1 1 2 3 3 6 5 10 12 6 13 14 7 8 6 10 15 14 15 9 2 4 5 4 2 1 1 1 1 3 3 3 3 2 4 5 4 1 4 7 8 10 11 12 13 9 5 4 3 3 3 3 7 4 6 6 1 2 0 2 1 2 4 7 10 12 13 16 21 25
3 4 4 4 5 6 7 8 8 8 9 6 3 2 2 2 2 0 1 1 2 2 3 7 5 10 16 6 7 14 10 8 11 13 12 11 17 16 6 5 8 4 1 4 4 2 2 2 2 1 1 3 6 8 6 6 7 7 7 9 9 9 8 3 3 3 1 3 3 6 10 7 6 4 2 1 1 2 1 3 4 7 10 12 12 15 21 24
3 4 5 6 7 7 8 8 8 9 9 5 2 3 2 0 0 1 1 0 2 3 3 5 5 7 11 4 3 11 9 7 13 13 9 8 13 19 12 6 8 5 1 3 3 2 2 1 1 1 1 4 5 6 4 7 7 5 4 7 7 6 5 1 0 2 2 3 4 9 12 8 5 2 2 1 4 4 2 1 3 4 8 13 14 18 23 27
3 5 6 7 8 8 8 8 9 9 7 4 3 3 1 0 2 1 1 2 2 4 2 1 4 5 6 4 3 7 5 5 11 9 5 4 6 10 9 5 6 3 2 3 2 1 1 1 0 2 1 4 4 4 2 2 4 3 3 6 7 5 5 3 3 2 3 4 3 9 11 7 3 1 1 3 4 3 3 4 5 4 11 18 21 25 28 31
4 6 7 8 9 9 9 8 8 7 5 4 2 1 0 1 2 1 1 3 1 2 1 1 4 5 5 4 4 5 2 1 7 9 6 4 4 4 6 8 7 3 0 4 4 3 1 1 1 1 2 6 4 3 2 2 4 4 4 5 4 4 5 5 4 3 5 7 5 9 8 5 4 2 2 3 4 5 7 7 4 12 19 23 26 29 31 32
5 7 8 10 10 9 8 7 6 5 3 2 1 1 4 3 2 1 1 3 1 1 1 1 5 5 2 2 2 3 2 0 3 6 6 5 4 2 3 7 9 4 2 3 2 2 2 2 2 1 2 4 3 3 0 2 3 3 2 4 2 3 2 3 3 3 7 9 10 9 4 2 5 2 3 3 4 5 4 5 15 25 28 29 31 31 30 31
5 7 8 8 6 5 5 3 3 2 0 1 1 2 5 3 1 2 2 1 2 3 2 0 3 4 1 2 0 2 2 1 2 4 4 3 2 2 2 4 6 5 2 2 1 1 3 3 1 2 2 2 2 1 1 1 1 3 2 4 1 2 1 3 5 5 7 9 8 5 3 2 3 1 3 3 5 6 13 19 25 28 29 30 30 30 32 35
5 6 7 7 5 2 1 1 1 0 0 1 3 4 3 2 1 3 2 2 1 3 4 2 1 3 1 1 1 1 1 1 2 2 2 2 1 1 1 0 3 5 3 1 2 1 3 4 3 1 3 2 2 0 1 1 1 2 3 2 4 4 3 2 6 6 6 7 5 4 5 5 5 2 3 3 6 11 15 19 24 28 29 29 29 31 36 38
5 7 8 8 7 4 2 2 2 3 4 4 5 4 1 1 2 2 2 2 1 2 3 2 1 1 2 1 1 3 3 1 1 1 1 2 1 1 2 1 2 4 3 1 1 1 0 5 5 3 0 1 2 1 2 3 2 1 0 2 5 3 2 1 3 4 4 6 5 6 8 7 7 5 2 4 11 11 11 17 23 29 29 27 29 34 38 37
6 8 10 9 8 5 4 5 5 6 9 8 6 3 1 1 3 2 1 2 1 2 2 2 0 0 1 2 2 4 5 3 3 3 1 0 1 1 2 1 3 4 2 1 1 1 1 4 4 2 1 2 3 1 1 4 5 3 5 1 1 1 1 2 2 3 5 6 6 10 11 7 5 4 4 10 12 11 15 18 20 23 25 27 31 36 38 38
4 6 10 9 7 8 7 5 6 8 8 6 4 3 2 2 2 2 1 1 1 1 1 1 0 0 1 2 2 3 3 3 4 4 2 1 2 2 2 2 2 4 5 2 1 2 1 1 3 2 1 1 2 0 1 1 3 4 6 2 2 1 2 2 1 1 3 5 7 11 13 6 3 5 8 10 10 13 17 17 16 19 25 31 35 37 38 37
2 3 8 8 7 10 8 6 9 11 7 5 3 2 2 2 1 3 3 1 1 2 2 1 2 2 2 2 1 1 2 1 2 3 2 2 2 2 5 4 3 5 7 3 1 3 2 2 4 4 5 3 1 1 1 2 1 2 2 1 2 1 1 2 2 1 1 3 5 10 12 6 2 5 6 8 11 14 16 16 16 21 28 34 37 37 37 37
4 2 6 8 8 7 6 8 11 10 4 4 4 2 2 2 2 2 4 4 3 3 3 1 2 2 3 2 1 0 2 3 2 1 2 2 2 2 3 4 3 4 6 3 1 2 2 3 4 4 6 4 1 0 3 1 2 2 1 1 2 1 1 2 3 1 2 1 3 7 13 10 5 3 4 9 12 14 19 19 17 25 35 38 37 38 38 39
6 3 5 9 10 7 8 9 9 7 3 3 3 3 3 2 2 2 4 4 3 3 2 1 1 2 2 2 2 2 2 3 3 2 1 1 2 1 1 3 3 1 2 1 2 2 2 2 3 5 5 2 1 1 3 4 4 4 2 2 2 2 1 0 4 2 1 3 4 6 11 12 5 2 6 11 15 21 25 22 21 30 38 38 40 41 39 41
10 7 5 6 7 8 11 8 6 5 4 2 3 4 4 3 2 1 3 4 3 2 2 1 2 2 2 2 2 2 2 2 2 1 1 2 2 1 0 2 3 1 1 1 1 3 2 2 3 5 4 0 2 2 3 5 4 3 1 1 2 2 2 3 3 2 2 3 5 6 10 11 5 5 11 17 22 27 26 23 27 35 37 38 41 41 39 42
13 14 13 7 2 3 7 4 2 4 3 2 4 4 4 5 4 3 2 4 3 2 2 1 2 2 1 1 2 2 1 1 1 1 0 1 1 1 1 2 2 2 2 1 1 3 2 2 3 5 4 3 3 3 3 2 1 0 2 2 2 2 2 3 3 1 1 4 4 6 11 12 9 11 15 18 21 23 22 26 33 35 35 38 41 40 40 43
8 11 16 17 9 7 7 5 5 5 3 3 4 2 2 4 5 4 3 3 3 2 2 1 1 1 1 1 2 3 1 1 0 0 0 1 1 2 0 2 2 2 1 1 1 2 1 2 3 3 3 4 5 5 5 5 4 2 2 4 3 4 4 2 2 1 3 5 6 7 11 15 17 19 18 17 17 17 20 31 37 34 35 39 40 41 42 44
4 3 8 15 17 17 15 11 10 8 4 3 3 2 2 2 2 3 3 2 2 3 1 1 1 2 2 1 2 3 2 4 2 1 1 1 0 1 1 1 1 1 1 0 1 1 1 3 3 3 4 4 5 8 9 8 6 7 5 4 6 5 3 1 0 3 5 8 9 9 11 18 23 22 20 19 17 15 19 30 35 34 37 40 41 42 43 43
5 3 2 5 10 14 14 12 11 7 3 1 2 1 2 2 1 1 2 1 2 2 0 1 1 1 1 2 2 3 2 1 2 0 1 2 1 0 2 3 2 2 1 2 2 1 1 3 2 2 4 6 8 12 13 9 8 11 10 4 6 6 4 4 3 5 5 6 9 11 13 19 22 23 22 19 15 15 21 29 34 36 39 40 42 43 41 40
5 4 4 3 3 4 4 7 9 8 6 4 2 1 1 2 1 1 2 1 1 2 1 1 0 1 1 2 2 2 5 4 1 1 1 2 2 1 2 4 4 3 2 2 2 3 0 3 1 1 5 9 12 15 12 9 9 10 10 8 4 6 7 5 6 7 4 5 11 17 20 21 21 22 21 17 18 22 26 32 37 40 41 41 41 40 38 39
11 9 6 6 6 4 4 4 5 6 6 4 3 1 1 1 1 1 1 1 1 0 1 1 2 3 2 2 2 2 3 3 2 2 1 1 2 2 2 2 3 4 3 2 1 2 1 2 1 2 6 10 13 13 9 7 9 9 9 8 4 5 8 7 8 8 7 10 14 19 23 22 19 17 16 20 28 32 32 35 38 39 41 41 39 38 39 43
9 8 8 11 11 8 6 5 2 2 2 2 2 1 1 2 2 1 1 1 0 0 2 2 3 4 1 2 3 2 1 0 3 4 2 1 2 2 1 1 1 3 3 1 0 0 1 1 1 1 4 9 10 8 6 7 8 8 10 7 3 4 6 5 5 6 8 12 16 19 20 18 13 13 18 26 33 32 31 35 38 38 41 40 38 39 43 46
11 11 14 15 8 4 4 3 3 1 1 2 2 0 1 2 2 1 1 1 1 1 1 2 5 4 2 3 3 2 2 2 5 7 4 3 3 1 1 1 1 1 2 1 0 1 1 1 2 1 3 7 6 6 10 12 7 5 9 7 5 4 3 2 3 5 8 14 19 18 15 11 10 14 21 27 30 30 30 34 37 39 39 37 37 40 44 45
14 14 13 11 5 3 3 3 3 2 2 2 2 1 1 2 2 1 1 0 1 1 0 2 4 4 2 3 2 3 7 8 9 10 8 7 6 4 3 2 1 1 1 2 1 1 2 1 2 2 2 6 6 8 11 12 7 4 5 3 2 1 4 4 5 9 12 13 13 12 11 10 12 16 19 21 25 28 30 33 37 38 37 35 37 40 42 44
Wind_Direction
125 110 100 100 95 89 86 84 77 66 53 38 16 3 13 28 50 46 40 38 31 26 17 10 4 5 27 79 99 93 85 79 39 5 19 14 1 352 350 349 342 334 333 332 5 0 336 310 240 248 249 236 222 208 112 313 303 294 259 240 302 28 52 27 22 25 334 334 353 3 29 26 9 11 357 41 71 68 62 58 57 57 57 52 48 40 38 42
122 113 108 106 97 87 81 77 67 53 40 18 360 360 12 25 47 45 32 28 24 19 8 1 2 5 15 84 113 108 100 87 34 9 13 4 354 358 358 358 359 354 348 336 6 3 340 346 345 254 242 215 152 121 174 76 277 270 274 289 36 47 60 38 25 24 358 350 345 352 32 42 28 357 345 57 67 61 61 52 54 57 53 49 45 44 42 45
121 116 115 110 98 88 81 70 53 40 21 1 359 5 15 31 53 44 27 24 22 14 4 3 15 3 353 83 138 117 106 84 32 7 356 353 356 4 4 11 10 4 7 13 54 44 3 4 353 288 254 202 94 81 153 67 286 292 327 15 52 58 83 47 25 28 12 359 342 342 36 62 50 13 354 95 77 57 60 48 52 56 52 51 46 47 47 47
122 120 119 112 101 92 78 58 44 27 9 2 4 13 30 56 63 47 32 30 24 15 9 19 30 15 12 79 153 123 99 95 30 359 345 355 7 14 18 23 20 20 21 32 59 52 29 1 333 301 270 80 70 118 72 34 326 358 11 43 24 358 60 43 29 34 12 355 338 335 32 86 65 36 26 92 87 59 68 62 63 65 59 58 53 51 52 52
124 123 121 113 103 89 69 49 35 19 13 13 18 36 59 71 69 52 41 38 31 23 22 45 51 45 52 78 123 66 352 138 11 353 357 13 19 25 29 32 35 39 33 37 38 15 356 333 312 284 247 86 70 157 42 30 339 18 41 53 26 5 36 39 28 37 16 352 351 19 59 81 71 50 46 72 86 85 88 81 78 76 70 66 62 58 57 56
126 124 119 113 101 81 59 44 32 24 23 26 43 65 78 81 74 57 51 48 42 34 32 56 72 62 67 76 78 42 26 74 356 355 17 21 24 29 33 39 42 43 32 26 7 331 314 291 238 250 19 72 48 48 49 40 331 352 67 59 39 28 44 39 24 35 20 5 33 60 84 88 83 72 69 77 91 102 100 95 88 83 79 74 69 64 61 58
122 119 118 110 94 74 55 44 35 32 34 48 70 83 90 85 69 55 50 54 48 39 35 47 96 62 62 72 73 57 56 43 1 7 25 21 26 29 33 39 43 39 23 14 2 344 335 333 275 7 46 86 46 48 39 9 15 29 99 75 47 42 52 44 29 34 10 13 44 52 139 99 93 94 91 92 104 110 107 101 93 87 83 76 71 66 63 61
116 115 113 102 89 71 54 48 42 42 50 71 91 96 94 75 58 47 44 53 43 33 34 46 66 48 37 47 67 56 40 17 4 17 23 20 24 27 33 37 45 37 12 13 14 10 2 12 38 10 38 94 43 67 9 348 30 37 85 91 57 55 65 59 61 48 355 343 34 84 91 92 99 103 102 109 117 118 113 106 98 90 82 74 71 67 65 63
121 115 109 100 86 67 56 53 50 54 68 93 108 97 77 55 42 39 37 46 38 32 43 57 60 47 33 359 323 37 22 5 8 18 16 19 20 23 32 39 46 34 0 6 18 64 58 31 40 29 66 67 31 57 359 353 36 27 60 108 98 89 69 32 97 81 8 357 360 103 104 110 118 110 101 116 124 123 117 110 102 92 84 76 72 69 65 64
122 117 111 98 76 63 58 57 59 69 85 105 109 74 53 40 31 39 44 55 52 45 51 68 65 49 42 32 45 49 13 9 16 19 15 20 21 21 28 38 44 31 7 9 29 89 81 60 55 49 71 64 49 44 2 10 75 40 76 133 112 111 77 72 82 88 149 18 8 105 123 123 125 112 107 127 132 129 122 113 104 94 87 80 75 70 65 63
121 114 102 81 65 63 61 66 69 73 79 76 74 53 39 31 33 42 45 62 60 49 50 66 71 57 51 60 68 48 11 16 19 20 20 22 27 24 26 34 39 33 26 34 45 68 96 106 86 66 70 67 73 63 54 91 105 108 128 290 172 153 309 90 86 100 177 22 1 83 113 92 77 75 124 141 143 136 126 116 107 97 91 85 80 73 65 61
117 103 85 70 65 66 68 70 60 46 32 21 41 41 34 41 50 47 36 43 33 40 51 54 63 62 51 55 52 29 16 25 20 18 21 30 34 30 29 34 38 39 39 47 54 60 98 103 68 57 63 35 124 101 90 118 131 159 170 231 191 193 251 61 49 82 144 53 6 79 107 93 68 95 134 147 150 141 133 124 113 104 97 90 84 77 68 58
108 91 78 71 68 70 66 51 33 22 13 17 51 45 57 62 55 43 31 38 31 34 41 41 58 60 53 55 42 25 24 25 21 19 24 35 34 29 34 40 41 44 47 53 60 65 84 90 66 59 54 33 114 134 166 187 191 206 200 208 180 203 203 106 22 44 127 103 102 135 134 144 109 119 142 153 161 153 141 131 122 114 104 95 88 76 70 58
97 86 77 72 69 63 47 33 24 17 5 11 54 63 73 64 55 54 50 55 52 49 50 53 66 53 51 63 34 23 25 21 24 33 36 39 39 26 29 39 46 52 55 59 66 72 77 74 59 53 43 39 119 162 262 192 210 311 185 181 49 22 310 116 46 35 99 110 182 162 206 193 141 139 150 158 170 162 146 135 123 118 108 98 90 75 66 56
93 85 74 70 62 51 45 47 47 43 38 45 72 81 73 62 60 64 66 66 58 59 70 72 71 56 54 60 25 16 24 29 30 38 41 39 48 32 24 40 52 57 60 62 61 66 71 67 55 43 25 22 151 208 256 155 149 17 43 7 14 18 330 118 90 48 62 1 318 179 182 185 152 155 161 164 176 168 150 138 125 116 108 93 81 70 59 49
91 79 70 66 56 63 75 78 80 74 67 68 85 88 67 63 70 73 81 72 55 57 78 76 71 78 68 43 22 16 25 32 26 35 43 32 28 16 26 46 46 40 44 42 33 31 45 58 61 46 32 14 296 246 125 58 34 22 22 352 4 3 330 319 132 56 38 27 342 269 214 175 158 162 163 169 178 170 154 146 136 118 107 92 75 61 49 40
86 75 70 67 77 92 92 87 85 83 79 77 77 74 56 44 55 65 67 61 49 49 62 73 84 88 67 35 23 13 19 27 22 32 37 26 28 26 41 60 30 348 346 11 14 4 7 30 56 47 35 28 351 352 77 41 357 358 6 355 357 342 323 316 236 27 11 28 350 275 231 146 139 157 164 173 177 174 164 155 146 129 115 96 72 54 40 30
82 76 73 92 106 101 92 82 80 87 90 86 80 75 69 63 66 81 71 78 71 51 52 56 60 93 52 20 10 1 19 31 23 21 22 27 49 55 53 45 10 333 286 329 15 7 13 33 47 57 29 27 19 19 63 48 335 339 352 332 329 324 310 313 306 346 357 350 324 283 231 166 147 158 165 174 181 181 171 162 156 140 120 98 65 47 33 21
82 81 98 116 117 100 80 69 74 94 96 92 83 71 67 68 69 70 69 72 69 57 44 33 34 84 22 1 2 354 31 36 20 8 15 36 46 45 36 14 4 15 18 104 27 18 35 44 32 42 19 11 25 27 32 7 326 322 320 285 293 312 300 308 315 339 18 339 304 290 264 176 165 172 171 174 181 180 176 171 166 152 118 82 52 35 21 13
86 98 120 127 119 80 42 45 70 109 108 95 60 26 27 61 60 57 60 64 66 66 64 47 42 59 39 16 20 19 40 40 25 13 11 13 11 15 14 331 303 46 51 82 20 30 52 64 42 29 9 357 10 16 359 326 307 298 292 287 299 307 302 308 311 321 62 350 287 293 297 207 174 183 175 170 177 179 181 178 161 146 96 54 30 20 10 4
100 116 128 127 98 50 41 51 65 92 154 238 28 36 51 74 80 70 63 63 65 66 61 52 47 38 28 28 27 26 31 29 29 28 21 1 359 356 10 5 327 41 47 164 105 57 54 62 43 17 4 352 339 319 314 288 279 279 275 293 312 314 309 305 303 307 74 46 282 291 287 236 191 180 169 165 178 183 179 169 138 111 69 37 16 6 355 351
119 129 131 111 70 55 54 61 61 65 82 90 86 88 88 91 96 94 86 76 63 62 56 47 45 35 26 28 28 34 31 10 14 23 25 27 31 25 12 24 51 21 19 68 114 61 54 53 22 8 354 332 291 262 292 282 250 255 275 311 314 325 319 299 301 345 8 95 274 287 288 265 200 163 168 173 182 166 148 136 107 90 44 19 5 352 343 343
134 138 128 93 73 63 56 58 55 62 82 84 89 96 95 97 97 91 92 97 69 53 41 36 37 30 24 20 18 34 41 29 4 7 16 28 38 38 17 20 59 40 26 36 50 55 58 49 7 344 315 311 287 293 355 329 269 239 323 358 309 328 336 299 313 329 309 281 270 278 290 287 191 147 177 180 171 147 139 138 124 129 99 17 345 334 337 342
146 140 124 95 77 63 58 58 49 50 58 51 70 106 109 110 108 95 70 104 97 42 22 26 26 22 19 13 6 18 39 36 17 2 10 20 25 31 24 15 34 47 36 41 74 83 76 39 340 311 266 275 284 10 32 355 326 13 43 20 319 322 320 287 299 316 306 288 265 260 291 276 185 189 198 160 152 148 157 174 171 169 170 329 331 336 339 339
148 139 130 103 75 56 54 47 34 35 35 31 43 173 168 163 150 119 27 133 111 12 6 16 15 10 9 8 4 356 25 33 22 4 6 17 20 24 34 14 18 44 16 15 82 96 75 185 307 307 275 285 300 34 43 359 333 338 38 2 330 317 309 293 300 317 310 299 242 137 303 276 189 207 189 144 156 169 175 191 187 180 278 346 350 351 348 345
152 149 139 111 68 45 48 31 18 22 24 25 25 232 198 201 213 228 277 185 55 350 346 355 0 3 5 5 360 346 187 32 17 9 13 21 21 23 24 4 43 77 14 14 71 103 26 308 301 312 294 317 4 57 54 35 346 299 314 344 323 307 303 294 300 313 288 292 273 162 252 277 271 275 155 148 173 176 175 199 197 177 18 7 3 355 351 350
155 159 154 134 63 43 53 21 9 17 18 11 12 54 189 218 214 219 249 148 28 342 338 346 349 359 4 8 9 17 181 345 349 13 19 23 21 30 41 2 43 80 62 76 50 270 324 15 357 338 335 10 22 14 30 65 27 282 317 333 312 303 299 289 292 282 251 290 283 191 286 293 297 342 116 146 174 169 176 205 188 110 24 8 360 355 353 350
163 177 180 182 25 23 20 359 359 8 10 359 1 40 6 227 161 174 146 136 346 334 341 347 343 359 7 21 28 51 62 348 347 9 15 21 20 31 63 22 354 303 43 144 123 265 329 22 11 344 352 24 358 321 332 63 197 261 301 315 300 294 287 279 280 264 258 304 296 300 353 313 298 329 119 146 185 173 175 178 126 43 17 2 356 356 353 348
179 197 206 230 274 321 330 336 346 352 356 356 3 22 19 80 148 145 30 198 334 353 353 351 341 351 356 19 37 36 30 20 10 357 12 24 20 25 79 28 357 299 295 90 123 145 79 40 29 356 355 358 313 298 302 166 212 266 295 304 295 287 279 265 246 249 275 284 252 354 12 351 306 306 124 128 247 144 86 62 60 18 5 356 351 351 346 342
202 221 235 265 289 310 313 319 334 341 345 351 1 355 17 83 140 56 14 232 1 14 351 6 357 343 352 7 35 16 13 24 7 359 13 23 22 27 34 10 358 331 341 34 38 67 72 61 46 49 346 298 278 281 273 221 239 281 308 311 303 296 287 252 193 213 257 255 263 10 12 350 305 309 69 83 194 152 45 6 6 359 351 337 334 341 342 341
238 253 268 287 295 306 311 314 323 331 339 343 331 332 336 103 146 110 79 269 10 2 348 13 6 350 1 15 17 360 355 2 4 7 10 9 21 24 25 11 350 351 85 33 20 32 40 63 72 148 251 298 283 287 265 228 253 292 328 327 325 314 305 322 183 240 241 271 329 4 353 325 288 287 68 142 186 169 129 4 303 317 331 330 335 342 343 341
270 274 281 292 296 305 308 306 314 320 330 328 306 325 312 312 16 52 359 328 348 3 7 357 354 354 350 351 5 356 347 347 356 3 358 1 32 27 37 42 349 354 72 3 343 340 276 214 167 183 250 333 327 325 334 248 296 331 348 344 348 340 340 346 333 322 277 272 339 355 335 311 270 239 136 154 167 163 163 207 248 311 342 346 347 342 337 335
288 291 295 301 301 304 302 298 307 308 312 320 294 325 16 48 35 62 338 353 344 353 2 270 321 321 309 335 7 349 340 309 345 349 343 15 63 56 66 56 16 5 312 331 333 339 318 223 309 206 313 342 341 342 347 326 337 351 7 14 360 343 345 322 308 322 298 288 321 334 315 298 298 284 150 140 163 171 185 215 305 354 352 347 343 337 332 330
312 316 313 309 299 297 297 290 298 299 303 320 263 56 52 66 71 108 42 33 30 310 355 296 312 313 320 37 20 351 15 183 339 349 343 14 51 29 43 39 20 11 284 311 339 330 312 287 298 298 310 325 354 57 14 285 306 317 27 77 42 331 319 290 295 319 303 298 311 311 285 315 320 271 150 165 202 197 222 310 352 356 348 342 337 333 331 331
343 337 332 329 317 298 289 274 288 323 22 339 336 48 57 72 63 42 41 14 2 329 325 356 311 311 72 97 56 41 59 359 354 15 8 21 38 356 358 6 5 10 334 317 19 323 303 279 225 40 10 341 22 66 228 291 280 280 19 85 39 299 222 258 274 282 293 293 299 297 265 316 327 234 148 202 243 315 335 345 353 348 340 337 334 333 333 332
22 10 8 7 7 354 329 264 263 7 103 347 40 57 59 59 12 19 355 296 335 325 305 307 334 329 15 118 234 30 103 223 322 3 76 76 62 30 42 19 357 15 39 22 359 11 326 284 205 99 13 25 65 42 299 6 233 283 6 28 277 256 180 244 281 282 295 289 292 309 292 308 330 313 186 222 301 333 340 345 345 339 338 340 338 338 336 334
50 41 35 28 28 31 61 99 118 92 61 49 66 71 58 49 7 355 346 324 292 268 301 331 40 356 358 351 329 342 334 239 296 320 147 131 109 22 20 72 37 19 58 80 338 108 106 291 261 205 219 231 162 125 21 2 335 285 8 303 294 281 161 181 287 300 304 288 288 299 297 309 320 301 215 308 327 339 343 343 340 337 340 341 338 337 334 333
63 52 39 32 39 52 88 97 89 80 70 68 84 82 37 36 27 10 354 337 286 252 327 360 343 156 2 338 324 332 336 344 347 346 5 63 14 25 6 27 63 46 47 84 327 113 152 295 282 211 150 184 190 130 27 350 2 112 155 177 344 332 317 317 308 301 295 294 294 297 300 300 283 285 327 327 333 349 346 342 338 336 339 339 336 335 334 333
56 48 32 29 53 62 68 97 94 83 76 68 84 90 70 78 47 19 356 319 295 290 2 5 318 123 36 352 322 321 348 358 339 339 9 356 339 32 53 15 21 18 358 342 317 321 300 266 274 285 14 124 174 219 189 262 11 107 145 103 74 171 264 275 272 275 276 290 301 305 305 293 258 306 329 331 345 355 346 339 335 335 339 338 335 334 333 332
34 50 28 29 71 67 63 100 87 73 71 61 71 83 72 109 98 24 34 41 345 1 21 347 340 357 7 19 15 338 346 323 311 316 340 1 352 42 53 34 350 338 338 336 313 317 307 247 267 302 337 339 199 311 278 186 102 113 185 11 43 318 273 242 244 181 215 289 307 310 301 289 306 319 325 345 352 351 344 337 333 336 337 334 332 332 333 333
46 47 23 38 71 72 80 90 62 50 64 71 70 69 64 118 134 40 37 51 53 37 38 24 9 7 351 355 25 28 320 297 300 314 327 15 41 30 32 23 352 326 327 324 252 323 320 271 283 301 307 304 199 358 342 12 111 103 263 155 139 220 316 314 287 160 112 282 288 298 292 290 305 311 343 356 348 343 342 337 336 337 333 331 332 333 334 334
57 45 31 58 71 77 96 80 37 28 70 72 62 66 75 103 112 45 25 35 47 28 22 49 28 12 7 360 345 6 347 298 302 340 342 43 54 24 359 1 357 325 308 321 117 51 360 273 275 278 270 289 54 29 25 51 80 92 110 124 133 169 141 220 277 294 355 285 281 278 278 285 303 13 2 349 339 336 337 338 341 337 332 332 334 334 335 333
69 59 47 70 70 72 90 83 32 44 71 79 85 72 67 70 64 65 29 23 27 4 356 56 45 27 47 31 331 347 17 310 284 3 359 26 60 90 343 353 354 324 305 332 72 24 354 236 264 278 258 139 25 343 19 41 56 85 142 136 116 162 193 210 235 313 338 275 288 285 274 282 310 352 338 334 334 332 333 340 343 336 332 333 333 333 334 332
72 57 43 38 11 69 79 81 84 83 83 118 99 64 63 68 50 51 47 24 22 7 342 26 63 35 27 26 303 299 26 8 344 107 29 339 57 136 100 40 34 14 18 137 314 349 338 255 311 317 309 331 340 328 338 341 345 127 174 140 113 149 214 254 234 137 277 256 277 289 282 287 303 317 322 328 331 328 333 343 341 334 332 332 332 332 333 331
67 52 42 46 66 94 77 87 123 115 111 114 90 44 61 69 48 52 61 38 30 28 357 359 36 329 298 161 261 270 189 142 294 161 161 342 91 151 131 77 89 30 21 165 245 319 284 268 301 312 307 312 312 305 304 309 314 307 167 151 152 167 180 245 266 234 272 288 293 278 276 290 301 308 318 327 329 330 340 342 337 332 333 333 333 333 331 330
66 47 33 43 63 77 77 85 103 109 125 120 85 34 31 58 62 60 58 42 28 26 9 298 297 284 262 246 277 275 210 167 181 316 313 319 76 164 229 161 114 262 259 76 33 196 237 283 278 256 245 245 269 280 290 305 301 285 266 192 176 184 175 123 211 258 286 306 294 267 269 290 301 308 318 326 331 337 341 338 334 333 335 334 334 332 330 329
71 52 16 35 57 67 68 67 70 80 104 95 83 55 44 77 122 51 38 46 15 9 326 248 290 304 312 330 317 302 308 225 185 190 297 270 262 194 224 213 225 256 230 53 33 80 257 282 278 288 269 260 275 283 287 293 279 276 285 259 181 177 162 142 200 262 301 311 287 284 292 296 300 310 317 324 336 341 338 336 334 333 334 334 333 331 329 331
85 90 83 90 80 55 51 52 57 66 65 61 97 128 62 90 108 17 33 14 345 3 359 234 37 52 39 353 300 311 343 336 246 173 241 250 260 262 227 212 211 223 172 106 56 72 167 258 238 3 286 282 288 285 278 273 267 271 282 280 238 178 164 182 234 258 281 274 280 298 304 299 302 310 315 328 343 340 334 334 334 332 332 334 333 331 332 336
110 111 88 87 99 100 99 91 81 78 67 68 100 83 24 77 84 85 36 321 269 67 359 28 46 27 19 348 307 309 345 339 281 268 250 247 265 251 249 235 202 206 196 157 106 94 169 251 231 232 274 285 285 277 269 272 278 282 283 283 269 180 176 209 248 262 270 269 279 296 299 297 302 309 319 336 339 333 330 331 333 332 332 333 334 334 337 338
119 123 113 103 93 81 87 86 63 76 74 66 87 41 338 62 79 136 79 9 63 56 350 8 360 342 309 300 302 288 355 5 248 257 233 198 274 241 221 353 112 211 213 166 119 182 156 307 313 209 283 292 284 275 288 298 293 293 292 287 257 214 209 224 271 296 299 293 294 299 298 296 303 320 330 333 331 328 329 333 334 333 332 335 338 339 338 337
113 123 124 114 90 41 56 52 352 23 43 14 45 357 322 61 62 95 82 66 106 65 15 6 343 321 228 237 265 266 335 308 255 255 239 217 253 234 215 317 29 233 211 139 167 226 165 289 308 33 302 290 298 325 321 309 297 279 283 273 235 240 257 270 295 301 302 303 304 305 300 296 315 334 332 328 328 330 334 336 334 332 332 336 339 338 337 335
113 122 125 114 94 26 17 348 330 57 63 355 38 58 78 89 71 47 68 139 128 96 358 349 344 324 250 229 260 301 312 299 274 264 254 246 254 252 251 270 298 244 215 140 185 175 97 296 300 359 309 285 310 329 314 305 301 280 275 264 205 286 330 323 308 305 305 305 305 302 301 310 330 336 329 327 332 334 335 335 332 329 333 337 337 336 334 333
Height
1516 1517 1517 1517 1517 1517 1517 1517 1517 1517 1517 1517 1517 1517 1516 1516 1516 1516 1515 1515 1514 1513 1513 1512 1512 1511 1511 1511 1511 1510 1510 1510 1511 1510 1508 1508 1508 1508 1507 1506 1505 1504 1504 1503 1503 1503 1502 1502 1503 1504 1504 1504 1504 1504 1504 1505 1504 1505 1504 1504 1506 1507 1508 1508 1507 1509 1509 1508 1508 1507 1508 1509 1510 1511 1511 1513 1515 1516 1517 1519 1522 1522 1522 1523 1523 1522 1519 1517
1517 1517 1517 1517 1518 1518 1518 1518 1518 1518 1518 1517 1517 1517 1517 1516 1516 1516 1516 1515 1515 1514 1513 1513 1512 1511 1511 1511 1511 1511 1510 1510 1511 1510 1509 1510 1509 1508 1507 1506 1505 1504 1504 1503 1502 1502 1502 1503 1503 1503 1503 1503 1503 1504 1504 1505 1505 1505 1503 1504 1508 1508 1508 1508 1507 1509 1509 1510 1509 1508 1509 1510 1512 1512 1511 1514 1517 1517 1518 1521 1523 1523 1523 1523 1523 1521 1520 1517
1517 1517 1518 1518 1518 1518 1519 1518 1518 1518 1518 1518 1518 1517 1517 1517 1517 1517 1516 1516 1515 1515 1514 1513 1512 1511 1510 1511 1511 1511 1511 1511 1512 1511 1510 1511 1510 1509 1508 1506 1505 1504 1503 1503 1502 1502 1503 1503 1503 1503 1503 1502 1503 1504 1504 1505 1505 1504 1503 1507 1509 1506 1507 1508 1508 1510 1510 1511 1510 1509 1510 1511 1513 1513 1512 1514 1517 1518 1521 1524 1524 1524 1524 1524 1523 1522 1520 1518
1517 1518 1519 1519 1519 1519 1519 1519 1519 1519 1518 1518 1518 1518 1517 1517 1517 1517 1517 1516 1516 1515 1514 1513 1512 1511 1510 1510 1510 1511 1511 1511 1512 1513 1512 1511 1510 1509 1508 1507 1506 1505 1504 1504 1503 1503 1503 1503 1504 1504 1503 1502 1503 1504 1504 1505 1505 1504 1505 1509 1509 1505 1507 1509 1510 1511 1512 1511 1511 1510 1510 1512 1514 1514 1513 1513 1516 1522 1525 1526 1525 1525 1525 1524 1524 1522 1520 1518
1518 1519 1519 1520 1520 1520 1520 1520 1519 1519 1519 1519 1518 1518 1518 1518 1518 1518 1517 1517 1516 1515 1514 1514 1513 1512 1511 1510 1511 1511 1510 1512 1514 1514 1513 1512 1511 1510 1508 1507 1506 1506 1505 1504 1504 1504 1504 1504 1504 1504 1503 1503 1504 1505 1505 1506 1506 1506 1508 1509 1508 1507 1508 1511 1511 1512 1513 1512 1512 1511 1511 1513 1514 1516 1516 1514 1518 1525 1526 1526 1526 1525 1525 1524 1524 1522 1521 1519
1519 1520 1520 1520 1520 1521 1521 1520 1520 1520 1519 1519 1519 1519 1518 1518 1518 1518 1518 1517 1517 1516 1515 1515 1514 1513 1512 1512 1512 1512 1512 1516 1517 1514 1513 1512 1511 1511 1509 1508 1507 1506 1506 1505 1505 1505 1505 1504 1504 1503 1503 1503 1505 1506 1507 1507 1506 1508 1510 1510 1510 1509 1510 1512 1513 1513 1514 1513 1512 1513 1513 1514 1515 1519 1521 1519 1522 1526 1526 1527 1526 1525 1525 1524 1523 1522 1521 1519
1520 1520 1521 1521 1521 1521 1521 1521 1521 1520 1520 1520 1520 1519 1519 1519 1519 1519 1518 1518 1518 1517 1516 1515 1515 1514 1514 1513 1513 1513 1513 1517 1517 1514 1514 1513 1512 1511 1510 1509 1508 1507 1507 1506 1506 1505 1505 1504 1503 1503 1503 1505 1506 1507 1508 1507 1507 1508 1511 1511 1511 1511 1512 1514 1514 1514 1515 1514 1514 1513 1514 1515 1517 1521 1523 1523 1525 1526 1527 1527 1526 1526 1525 1524 1523 1522 1521 1520
1521 1521 1522 1522 1522 1522 1522 1522 1521 1521 1521 1521 1520 1520 1520 1520 1520 1519 1519 1519 1518 1517 1517 1516 1515 1515 1514 1514 1514 1514 1515 1517 1516 1515 1515 1514 1513 1512 1511 1510 1508 1508 1508 1507 1506 1505 1505 1504 1504 1504 1505 1506 1507 1508 1508 1508 1508 1509 1511 1512 1512 1513 1513 1514 1514 1515 1515 1514 1514 1514 1515 1517 1518 1521 1523 1524 1526 1526 1526 1527 1526 1526 1525 1524 1523 1522 1521 1520
1522 1522 1523 1523 1523 1523 1522 1522 1522 1522 1521 1521 1521 1521 1521 1521 1520 1520 1520 1520 1519 1518 1518 1516 1516 1515 1515 1514 1514 1515 1517 1518 1517 1516 1515 1515 1514 1513 1512 1511 1509 1509 1509 1507 1506 1505 1505 1505 1506 1505 1506 1507 1508 1509 1509 1510 1512 1512 1512 1512 1513 1513 1513 1513 1514 1514 1515 1514 1514 1515 1516 1518 1518 1519 1523 1525 1525 1526 1526 1526 1526 1526 1525 1524 1523 1523 1522 1521
1523 1523 1524 1524 1524 1523 1523 1522 1522 1522 1522 1522 1522 1522 1521 1521 1521 1521 1520 1520 1520 1519 1518 1517 1517 1516 1515 1514 1514 1518 1520 1519 1518 1517 1516 1515 1514 1514 1513 1512 1510 1510 1509 1507 1505 1505 1505 1506 1506 1506 1507 1508 1509 1510 1510 1511 1513 1513 1513 1513 1513 1513 1513 1513 1513 1514 1514 1514 1514 1515 1516 1518 1517 1518 1523 1525 1525 1525 1526 1526 1526 1525 1525 1524 1523 1523 1522 1521
1524 1524 1525 1524 1524 1523 1523 1523 1523 1523 1523 1522 1522 1522 1522 1522 1521 1521 1521 1521 1520 1520 1519 1519 1517 1517 1517 1515 1515 1520 1521 1519 1519 1518 1517 1516 1515 1514 1513 1512 1511 1511 1509 1507 1506 1506 1506 1507 1507 1507 1508 1509 1510 1511 1511 1512 1513 1513 1513 1514 1513 1513 1513 1512 1512 1513 1514 1514 1514 1514 1516 1518 1518 1518 1522 1524 1524 1525 1525 1525 1525 1524 1524 1524 1523 1522 1522 1521
1525 1525 1525 1525 1524 1524 1524 1524 1524 1524 1523 1523 1523 1523 1522 1522 1522 1522 1521 1521 1521 1521 1520 1520 1518 1518 1518 1516 1518 1522 1521 1520 1519 1518 1517 1516 1516 1515 1514 1513 1512 1512 1510 1508 1507 1507 1507 1508 1508 1509 1509 1510 1511 1512 1513 1513 1513 1513 1513 1514 1514 1513 1513 1511 1511 1511 1512 1514 1514 1514 1517 1520 1519 1520 1521 1522 1523 1524 1524 1524 1524 1524 1523 1523 1522 1522 1521 1521
1526 1526 1525 1525 1525 1525 1525 1525 1524 1524 1524 1524 1523 1523 1523 1523 1522 1522 1522 1521 1521 1521 1521 1520 1520 1519 1518 1518 1522 1524 1522 1520 1519 1519 1518 1517 1516 1516 1515 1515 1514 1513 1512 1510 1509 1509 1509 1510 1510 1510 1510 1510 1511 1513 1513 1513 1513 1513 1512 1513 1513 1515 1514 1512 1511 1510 1511 1514 1513 1514 1519 1522 1521 1520 1520 1521 1522 1522 1523 1523 1523 1523 1523 1522 1522 1522 1521 1521
1526 1526 1526 1526 1526 1526 1526 1526 1525 1525 1524 1524 1524 1524 1524 1523 1523 1523 1522 1522 1522 1521 1521 1521 1520 1520 1520 1522 1524 1524 1522 1522 1520 1519 1518 1517 1517 1517 1517 1516 1515 1515 1514 1513 1512 1512 1511 1511 1511 1511 1511 1511 1512 1513 1512 1512 1513 1511 1510 1511 1513 1517 1516 1512 1511 1510 1511 1513 1511 1514 1518 1519 1519 1519 1519 1520 1520 1521 1522 1522 1522 1522 1522 1522 1522 1522 1522 1521
1527 1527 1527 1527 1527 1527 1527 1526 1526 1525 1525 1525 1525 1525 1524 1524 1524 1523 1523 1523 1523 1522 1522 1521 1521 1521 1522 1524 1525 1525 1524 1522 1521 1520 1519 1519 1518 1518 1518 1517 1516 1516 1515 1515 1515 1514 1512 1512 1513 1512 1512 1512 1512 1513 1511 1511 1511 1511 1514 1517 1516 1519 1517 1511 1512 1511 1511 1512 1510 1513 1517 1517 1518 1518 1518 1519 1519 1520 1521 1522 1522 1522 1522 1522 1522 1522 1522 1521
1528 1528 1528 1528 1528 1528 1528 1527 1527 1526 1526 1525 1525 1525 1525 1525 1525 1524 1524 1524 1523 1523 1522 1522 1522 1522 1524 1526 1527 1525 1524 1523 1522 1521 1520 1520 1519 1518 1518 1517 1517 1517 1516 1516 1515 1514 1513 1513 1513 1513 1513 1513 1512 1510 1510 1514 1516 1516 1521 1522 1521 1522 1520 1514 1511 1511 1510 1510 1509 1511 1513 1515 1516 1516 1517 1518 1518 1519 1520 1521 1521 1522 1522 1522 1522 1522 1521 1521
1528 1529 1529 1529 1529 1529 1529 1529 1528 1527 1526 1526 1526 1526 1526 1525 1525 1525 1525 1524 1524 1525 1524 1524 1523 1522 1525 1528 1528 1526 1525 1524 1524 1523 1521 1521 1520 1519 1518 1517 1517 1517 1516 1516 1515 1514 1513 1513 1514 1516 1515 1516 1514 1509 1513 1525 1529 1525 1525 1525 1524 1524 1522 1517 1512 1510 1509 1509 1510 1509 1508 1511 1513 1515 1517 1517 1518 1519 1519 1520 1520 1521 1521 1521 1521 1521 1521 1520
1529 1530 1530 1530 1530 1530 1530 1530 1530 1529 1528 1528 1528 1528 1527 1527 1526 1525 1525 1525 1525 1524 1524 1524 1524 1525 1529 1529 1529 1529 1527 1526 1525 1523 1522 1521 1520 1519 1519 1518 1517 1516 1516 1516 1516 1515 1514 1514 1515 1517 1519 1521 1522 1521 1525 1533 1535 1532 1531 1530 1528 1524 1521 1518 1513 1510 1510 1509 1510 1508 1506 1510 1513 1514 1516 1516 1517 1518 1518 1519 1520 1520 1520 1521 1521 1520 1520 1520
1530 1530 1531 1531 1531 1531 1531 1531 1531 1530 1530 1529 1529 1529 1529 1529 1528 1526 1526 1525 1525 1527 1530 1530 1529 1532 1536 1533 1531 1531 1528 1526 1525 1524 1523 1522 1521 1520 1519 1519 1518 1516 1516 1517 1518 1517 1516 1517 1519 1523 1529 1530 1531 1533 1534 1535 1534 1533 1532 1531 1529 1526 1521 1517 1513 1511 1511 1511 1509 1507 1505 1507 1511 1513 1514 1515 1516 1517 1518 1519 1519 1520 1520 1520 1520 1520 1520 1519
1531 1531 1532 1532 1532 1532 1532 1532 1532 1532 1531 1530 1530 1530 1530 1530 1530 1530 1529 1527 1530 1534 1536 1537 1535 1536 1537 1534 1532 1530 1528 1527 1527 1525 1524 1522 1522 1521 1519 1519 1518 1517 1518 1519 1520 1519 1518 1523 1531 1534 1537 1536 1534 1535 1535 1534 1533 1532 1531 1528 1526 1526 1523 1517 1513 1511 1512 1512 1509 1505 1505 1505 1508 1510 1511 1514 1515 1516 1517 1518 1519 1520 1520 1521 1520 1520 1519 1519
1532 1532 1533 1533 1533 1533 1533 1533 1533 1532 1532 1531 1531 1530 1530 1530 1531 1533 1533 1533 1536 1537 1537 1538 1537 1536 1536 1534 1533 1530 1529 1529 1527 1526 1524 1523 1522 1521 1520 1519 1519 1520 1520 1519 1520 1521 1521 1529 1538 1538 1536 1536 1535 1534 1533 1533 1532 1531 1530 1528 1525 1525 1524 1518 1514 1512 1512 1514 1510 1506 1505 1503 1504 1507 1509 1512 1514 1515 1516 1517 1519 1519 1520 1520 1520 1520 1519 1518
1533 1533 1533 1534 1534 1534 1534 1534 1533 1533 1533 1532 1532 1532 1532 1532 1532 1533 1534 1536 1539 1538 1538 1538 1537 1537 1535 1534 1534 1532 1531 1530 1528 1527 1525 1524 1522 1522 1522 1521 1522 1523 1521 1519 1521 1523 1528 1536 1538 1536 1536 1535 1534 1532 1531 1531 1530 1530 1529 1528 1528 1527 1524 1517 1513 1513 1513 1515 1511 1505 1505 1502 1501 1505 1508 1511 1512 1514 1515 1516 1517 1518 1519 1519 1519 1519 1518 1517
1534 1534 1534 1535 1535 1535 1535 1535 1535 1534 1534 1534 1534 1534 1534 1534 1534 1534 1534 1536 1538 1539 1539 1538 1537 1537 1536 1535 1534 1533 1532 1532 1531 1529 1527 1526 1524 1524 1525 1524 1525 1525 1524 1524 1525 1529 1535 1539 1537 1535 1535 1534 1532 1530 1530 1530 1529 1529 1529 1531 1531 1528 1528 1523 1515 1514 1514 1513 1509 1505 1506 1504 1502 1505 1508 1510 1512 1513 1515 1516 1517 1518 1518 1518 1518 1517 1516 1515
1535 1535 1535 1536 1536 1536 1536 1536 1536 1535 1535 1535 1535 1535 1535 1535 1534 1535 1535 1535 1537 1539 1539 1538 1537 1537 1536 1536 1535 1534 1534 1534 1533 1532 1530 1528 1526 1526 1527 1527 1527 1528 1529 1529 1529 1533 1538 1538 1536 1535 1534 1532 1531 1530 1532 1534 1531 1529 1530 1533 1532 1527 1529 1526 1519 1516 1513 1509 1505 1505 1508 1504 1502 1506 1507 1509 1512 1513 1515 1516 1516 1517 1516 1517 1516 1516 1516 1515
1535 1536 1536 1537 1537 1537 1537 1537 1536 1536 1536 1535 1535 1535 1535 1535 1535 1535 1535 1536 1539 1539 1538 1539 1538 1537 1537 1536 1536 1536 1535 1535 1535 1534 1532 1530 1528 1528 1528 1528 1528 1530 1532 1530 1530 1534 1537 1536 1535 1534 1532 1531 1531 1532 1536 1537 1535 1533 1531 1531 1530 1526 1526 1523 1520 1520 1517 1510 1504 1506 1511 1504 1498 1500 1504 1509 1512 1513 1514 1515 1515 1516 1516 1516 1516 1515 1515 1515
1536 1537 1537 1537 1538 1537 1537 1537 1537 1537 1536 1535 1535 1535 1534 1535 1534 1535 1535 1536 1541 1542 1540 1539 1539 1539 1539 1537 1536 1535 1536 1536 1536 1536 1533 1531 1530 1529 1529 1529 1529 1532 1533 1532 1533 1535 1535 1534 1534 1534 1532 1531 1531 1534 1537 1537 1538 1536 1530 1529 1528 1526 1525 1521 1520 1522 1521 1513 1504 1505 1511 1507 1498 1495 1500 1508 1511 1511 1513 1514 1514 1515 1515 1516 1516 1515 1515 1514
1537 1537 1538 1538 1538 1538 1538 1538 1537 1537 1536 1535 1535 1534 1535 1534 1534 1535 1536 1540 1545 1545 1542 1541 1541 1542 1541 1540 1537 1535 1539 1540 1537 1537 1534 1533 1532 1530 1531 1532 1531 1533 1533 1534 1535 1536 1536 1535 1535 1534 1533 1532 1534 1537 1536 1537 1541 1536 1528 1528 1527 1524 1523 1519 1519 1522 1519 1513 1506 1502 1505 1507 1502 1498 1502 1507 1509 1511 1513 1513 1514 1514 1515 1516 1515 1515 1514 1513
1537 1538 1538 1538 1538 1538 1538 1538 1537 1537 1536 1535 1535 1534 1535 1534 1534 1535 1538 1548 1551 1545 1544 1544 1543 1543 1542 1542 1539 1539 1543 1541 1539 1538 1535 1534 1534 1532 1533 1534 1534 1534 1533 1535 1536 1537 1537 1537 1538 1538 1536 1536 1537 1538 1536 1536 1539 1533 1528 1528 1526 1523 1520 1516 1518 1518 1515 1515 1512 1503 1502 1509 1505 1499 1504 1508 1507 1510 1512 1512 1513 1513 1515 1515 1514 1514 1513 1512
1538 1538 1538 1538 1539 1538 1538 1538 1537 1536 1536 1535 1534 1535 1534 1534 1535 1535 1539 1550 1552 1547 1548 1547 1544 1545 1544 1542 1542 1542 1543 1542 1542 1541 1537 1537 1536 1534 1535 1535 1535 1535 1533 1533 1535 1538 1539 1539 1540 1540 1540 1540 1537 1536 1535 1536 1536 1530 1528 1527 1524 1520 1514 1511 1516 1516 1515 1517 1514 1506 1504 1513 1510 1499 1502 1508 1507 1511 1513 1512 1513 1514 1514 1514 1513 1513 1512 1510
1538 1538 1539 1539 1538 1538 1538 1537 1536 1536 1536 1535 1534 1534 1534 1534 1535 1538 1544 1551 1552 1550 1550 1548 1548 1549 1546 1544 1544 1544 1544 1544 1544 1542 1540 1540 1539 1537 1536 1536 1536 1536 1535 1536 1537 1539 1540 1540 1541 1540 1541 1540 1536 1535 1533 1533 1533 1530 1529 1527 1522 1517 1508 1507 1511 1512 1516 1515 1509 1506 1506 1515 1516 1504 1504 1510 1510 1513 1515 1513 1514 1513 1513 1512 1511 1510 1509 1508
1538 1539 1539 1538 1538 1538 1537 1536 1536 1536 1535 1535 1535 1534 1534 1535 1535 1542 1551 1553 1552 1552 1551 1551 1553 1552 1551 1551 1550 1549 1548 1547 1546 1545 1544 1542 1542 1540 1539 1541 1542 1538 1537 1539 1541 1542 1541 1540 1540 1540 1540 1538 1536 1534 1531 1531 1532 1531 1532 1528 1524 1518 1509 1508 1508 1510 1517 1514 1506 1506 1507 1514 1517 1509 1508 1513 1514 1515 1515 1514 1513 1511 1511 1511 1510 1509 1508 1507
1539 1539 1538 1538 1538 1537 1536 1536 1535 1535 1535 1534 1534 1533 1535 1537 1540 1549 1555 1553 1554 1558 1558 1558 1557 1555 1555 1555 1555 1555 1553 1551 1549 1548 1548 1546 1549 1550 1550 1554 1555 1548 1544 1543 1542 1542 1541 1541 1540 1540 1539 1538 1537 1535 1533 1532 1532 1532 1533 1532 1534 1531 1523 1522 1520 1517 1518 1513 1508 1509 1511 1514 1511 1507 1510 1513 1513 1513 1512 1511 1511 1510 1510 1509 1508 1507 1506 1505
1539 1538 1538 1537 1537 1536 1536 1536 1535 1535 1535 1534 1534 1534 1535 1540 1550 1559 1558 1555 1559 1562 1562 1562 1559 1557 1557 1555 1557 1558 1556 1555 1552 1550 1550 1548 1551 1556 1556 1558 1559 1557 1553 1548 1545 1544 1542 1541 1540 1540 1540 1538 1538 1538 1538 1537 1535 1535 1534 1538 1544 1545 1545 1544 1534 1526 1523 1514 1509 1511 1515 1517 1509 1505 1510 1510 1510 1510 1509 1510 1509 1508 1507 1506 1505 1505 1504 1503
1538 1538 1537 1536 1536 1535 1535 1535 1535 1535 1534 1534 1534 1534 1536 1545 1557 1563 1561 1560 1563 1563 1562 1563 1561 1559 1558 1558 1561 1560 1557 1557 1555 1553 1552 1550 1553 1558 1558 1558 1559 1559 1557 1553 1551 1551 1549 1544 1541 1541 1541 1540 1539 1540 1542 1541 1539 1537 1534 1538 1546 1547 1554 1555 1541 1534 1533 1523 1514 1512 1514 1515 1509 1507 1509 1508 1507 1508 1507 1507 1506 1505 1505 1505 1504 1503 1502 1500
1538 1538 1537 1536 1535 1535 1534 1535 1535 1534 1534 1534 1534 1536 1545 1555 1560 1561 1564 1566 1566 1564 1562 1563 1562 1559 1557 1559 1562 1562 1560 1558 1555 1554 1554 1555 1558 1560 1561 1562 1561 1561 1560 1556 1554 1554 1551 1545 1542 1542 1540 1540 1540 1540 1541 1541 1540 1537 1533 1539 1546 1545 1549 1550 1540 1535 1536 1531 1521 1513 1509 1506 1505 1506 1506 1507 1506 1505 1505 1504 1503 1504 1504 1504 1503 1502 1501 1499
1539 1538 1537 1536 1535 1535 1534 1535 1535 1534 1535 1534 1536 1547 1560 1566 1566 1565 1569 1569 1568 1567 1564 1562 1562 1559 1557 1558 1560 1560 1561 1558 1556 1555 1556 1559 1562 1561 1562 1563 1563 1563 1563 1560 1558 1557 1555 1546 1541 1542 1541 1540 1542 1541 1541 1542 1540 1536 1537 1543 1545 1542 1544 1547 1542 1533 1534 1536 1524 1513 1510 1507 1507 1507 1505 1505 1505 1503 1504 1504 1503 1505 1504 1503 1503 1501 1500 1498
1539 1538 1537 1536 1536 1535 1535 1535 1535 1535 1535 1534 1543 1558 1567 1570 1571 1571 1571 1570 1569 1570 1565 1561 1563 1562 1560 1558 1558 1559 1560 1558 1556 1555 1556 1559 1562 1563 1563 1564 1565 1565 1565 1565 1562 1560 1562 1554 1540 1538 1541 1541 1541 1541 1540 1541 1540 1539 1543 1546 1542 1540 1541 1544 1546 1541 1541 1543 1527 1514 1516 1517 1516 1513 1505 1503 1505 1504 1504 1504 1504 1504 1503 1503 1502 1500 1499 1496
1539 1539 1538 1537 1537 1536 1536 1536 1536 1537 1535 1539 1552 1564 1568 1570 1573 1572 1571 1570 1570 1569 1566 1563 1564 1565 1563 1561 1560 1561 1561 1558 1556 1556 1557 1558 1561 1565 1566 1566 1567 1566 1566 1568 1565 1561 1564 1559 1543 1535 1539 1542 1541 1542 1541 1540 1540 1539 1542 1544 1544 1549 1549 1544 1547 1549 1550 1549 1534 1519 1519 1520 1517 1512 1506 1505 1506 1506 1505 1504 1504 1504 1503 1503 1500 1499 1497 1494
1540 1540 1539 1539 1538 1538 1538 1538 1538 1536 1536 1545 1558 1566 1568 1572 1573 1571 1571 1571 1570 1569 1567 1566 1567 1566 1565 1565 1565 1565 1564 1562 1561 1560 1559 1559 1562 1566 1568 1568 1568 1567 1566 1567 1566 1562 1562 1563 1551 1536 1536 1541 1541 1540 1540 1540 1541 1540 1541 1543 1544 1549 1552 1548 1548 1549 1551 1551 1542 1529 1522 1517 1512 1507 1507 1509 1507 1507 1507 1506 1505 1505 1503 1503 1500 1497 1494 1491
1541 1540 1541 1541 1540 1540 1540 1539 1538 1538 1543 1554 1562 1566 1569 1572 1572 1572 1571 1571 1571 1570 1569 1569 1569 1567 1567 1568 1569 1569 1567 1566 1564 1562 1560 1561 1563 1566 1570 1571 1569 1569 1567 1566 1567 1564 1561 1562 1556 1541 1537 1539 1540 1540 1539 1539 1541 1541 1542 1546 1548 1549 1549 1549 1547 1544 1548 1551 1551 1546 1529 1512 1507 1507 1507 1508 1507 1507 1509 1507 1505 1504 1503 1502 1499 1496 1493 1490
1541 1542 1543 1542 1541 1541 1540 1540 1542 1546 1553 1560 1564 1567 1570 1571 1572 1572 1572 1571 1572 1572 1572 1571 1571 1571 1570 1570 1571 1571 1570 1567 1564 1562 1561 1563 1564 1567 1570 1572 1571 1570 1568 1566 1566 1566 1563 1561 1558 1550 1543 1539 1539 1542 1542 1540 1540 1541 1542 1545 1550 1552 1552 1555 1551 1543 1546 1550 1551 1554 1537 1510 1505 1508 1506 1507 1508 1508 1509 1507 1505 1504 1502 1500 1497 1494 1492 1489
1542 1544 1545 1543 1543 1542 1540 1545 1552 1554 1559 1565 1567 1569 1571 1571 1572 1573 1572 1573 1573 1572 1573 1573 1573 1573 1573 1572 1571 1571 1571 1568 1564 1563 1563 1564 1567 1569 1571 1572 1572 1571 1570 1566 1565 1567 1567 1565 1562 1555 1546 1542 1543 1544 1543 1542 1540 1541 1543 1544 1547 1550 1552 1557 1556 1547 1549 1550 1546 1551 1539 1510 1502 1506 1505 1508 1509 1508 1509 1508 1506 1504 1501 1498 1495 1493 1490 1488
1543 1545 1546 1544 1544 1543 1542 1550 1559 1560 1564 1569 1570 1570 1571 1572 1573 1573 1573 1574 1573 1573 1573 1573 1574 1574 1574 1575 1573 1572 1572 1569 1565 1564 1565 1565 1569 1572 1572 1572 1571 1570 1570 1567 1565 1568 1567 1563 1560 1550 1540 1540 1545 1545 1543 1544 1543 1543 1545 1545 1547 1551 1550 1552 1554 1553 1556 1553 1547 1550 1538 1508 1499 1505 1507 1509 1510 1508 1509 1507 1506 1504 1500 1497 1494 1491 1489 1487
1545 1546 1546 1545 1545 1544 1545 1553 1561 1565 1568 1570 1570 1571 1572 1573 1574 1574 1575 1575 1575 1575 1575 1574 1575 1575 1574 1575 1574 1572 1572 1570 1566 1566 1567 1566 1569 1573 1572 1571 1571 1569 1570 1569 1568 1569 1564 1557 1555 1552 1546 1543 1544 1545 1545 1544 1543 1544 1546 1548 1548 1551 1552 1551 1552 1556 1556 1547 1544 1550 1536 1507 1498 1504 1507 1509 1510 1508 1508 1507 1506 1504 1500 1497 1493 1490 1488 1485
1546 1547 1548 1547 1545 1545 1550 1555 1558 1563 1568 1569 1571 1573 1573 1574 1576 1575 1576 1576 1576 1576 1576 1575 1575 1575 1575 1574 1573 1572 1572 1571 1569 1568 1569 1568 1570 1572 1571 1571 1571 1569 1570 1570 1569 1570 1565 1558 1557 1558 1557 1555 1553 1550 1547 1543 1542 1541 1544 1549 1550 1551 1553 1550 1550 1555 1553 1542 1541 1547 1534 1509 1500 1502 1505 1508 1508 1506 1506 1506 1505 1504 1501 1497 1493 1489 1486 1483
1547 1549 1551 1551 1549 1549 1554 1558 1558 1562 1567 1568 1570 1573 1573 1574 1576 1576 1576 1577 1576 1576 1576 1575 1575 1575 1574 1573 1573 1571 1570 1571 1571 1570 1570 1569 1570 1571 1571 1570 1570 1569 1569 1569 1568 1569 1566 1560 1557 1555 1554 1554 1553 1550 1545 1544 1545 1542 1541 1546 1549 1551 1550 1549 1551 1551 1546 1543 1541 1539 1532 1517 1506 1504 1505 1506 1507 1506 1506 1505 1503 1501 1499 1496 1492 1489 1485 1482
1548 1553 1556 1555 1555 1556 1559 1561 1561 1563 1566 1567 1570 1574 1574 1575 1576 1576 1576 1576 1576 1576 1575 1575 1575 1575 1574 1574 1574 1572 1569 1570 1571 1570 1571 1571 1570 1571 1570 1569 1570 1568 1568 1569 1568 1568 1566 1561 1557 1556 1553 1551 1550 1548 1545 1545 1545 1541 1537 1540 1546 1550 1549 1549 1550 1545 1543 1549 1542 1529 1528 1524 1512 1506 1506 1506 1507 1507 1505 1504 1502 1499 1497 1495 1492 1488 1484 1481
1550 1556 1558 1557 1559 1562 1562 1563 1565 1566 1566 1567 1572 1575 1575 1575 1576 1576 1576 1576 1576 1576 1575 1575 1575 1575 1575 1576 1576 1574 1571 1569 1569 1569 1572 1572 1570 1570 1568 1568 1569 1568 1568 1568 1567 1568 1568 1563 1559 1558 1555 1553 1551 1548 1544 1544 1542 1537 1536 1536 1539 1546 1548 1547 1547 1543 1545 1550 1540 1526 1526 1525 1514 1509 1508 1507 1507 1507 1505 1504 1502 1499 1496 1494 1491 1487 1483 1480
1552 1555 1558 1559 1560 1564 1565 1566 1566 1567 1567 1569 1572 1575 1575 1574 1576 1576 1577 1576 1576 1576 1575 1575 1575 1576 1576 1576 1576 1575 1573 1572 1571 1571 1571 1571 1570 1569 1567 1566 1567 1567 1567 1567 1567 1569 1567 1561 1559 1559 1558 1554 1550 1544 1540 1540 1538 1535 1534 1534 1535 1541 1546 1546 1544 1542 1543 1543 1536 1530 1528 1522 1516 1513 1510 1509 1509 1508 1507 1505 1502 1499 1496 1492 1488 1485 1481 1478
1552 1554 1556 1558 1561 1565 1566 1567 1567 1568 1568 1569 1571 1574 1575 1574 1575 1577 1577 1576 1576 1576 1576 1576 1576 1576 1576 1576 1575 1574 1574 1574 1574 1573 1572 1571 1571 1569 1567 1566 1566 1567 1567 1567 1568 1568 1566 1561 1558 1559 1559 1553 1544 1539 1539 1538 1538 1537 1536 1535 1535 1539 1542 1543 1543 1542 1541 1538 1534 1531 1528 1521 1516 1515 1512 1511 1511 1508 1506 1504 1500 1497 1494 1490 1487 1483 1480 1478
1552 1553 1555 1556 1562 1567 1568 1568 1568 1568 1569 1571 1572 1574 1576 1575 1576 1576 1576 1577 1577 1577 1577 1577 1577 1576 1575 1575 1575 1574 1573 1574 1573 1572 1571 1571 1570 1569 1568 1566 1567 1567 1566 1567 1568 1567 1567 1564 1560 1561 1562 1553 1541 1538 1539 1537 1538 1540 1539 1537 1537 1539 1541 1543 1543 1543 1542 1539 1533 1531 1528 1520 1515 1515 1513 1512 1510 1507 1504 1502 1498 1495 1492 1490 1487 1484 1481 1478
1554 1555 1555 1556 1562 1569 1569 1568 1569 1568 1570 1574 1575 1575 1576 1576 1576 1576 1576 1577 1577 1577 1578 1578 1577 1576 1575 1574 1574 1573 1573 1572 1571 1570 1570 1570 1569 1568 1568 1567 1567 1567 1565 1567 1568 1568 1568 1568 1563 1562 1562 1551 1541 1541 1541 1539 1538 1539 1539 1538 1538 1539 1542 1543 1542 1541 1540 1539 1536 1532 1526 1519 1515 1515 1513 1509 1507 1506 1503 1502 1499 1495 1492 1490 1488 1485 1481 1477